Harbor Springs, MI

1:04 AM EDT on May 01, 2017 (GMT -0400)
Harbor Springs

Weather History for KMGN - February, 2013

Change the Weather History Date:

Saturday, February 2, 2013

  Actual Average (KPLN) Record (KPLN)
Temperature  
Mean Temperature 10 °F -  
Max Temperature 15 °F 25 °F 43 °F (1991)
Min Temperature 4 °F 4 °F -31 °F (1976)
Degree Days  
Heating Degree Days 56    
Moisture  
Dew Point 4 °F    
Average Humidity 74    
Maximum Humidity 87    
Minimum Humidity 55    
Precipitation  
Precipitation 0.00 in - - ()
Sea Level Pressure  
Sea Level Pressure 30.01 in    
Wind  
Wind Speed 6 mph (NW)    
Max Wind Speed 13 mph    
Max Gust Speed 17 mph    
Visibility 9 miles    
Events Snow    
Averages and records for this station are not official NWS values.
T = Trace of Precipitation, MM = Missing Value Source: NWS Daily Summary

Daily Weather History Graph

Daily Weather History Graph

Search for Another Location

Airport or City:

Trip Planner

Search our weather history database for the weather conditions in past years. The results will help you decide how hot, cold, wet, or windy it might be!

Date:

Astronomy

Feb. 02, 2013 Rise Set
Actual Time 7:59 AM EST 5:48 PM EST
Civil Twilight 7:27 AM EST 6:19 PM EST
Nautical Twilight 6:52 AM EST 6:55 PM EST
Astronomical Twilight 6:17 AM EST 7:29 PM EST
Moon 12:14 AM EST (2/2) 10:46 AM EST (2/2)
Length of Visible Light 10h 52m
Length of Day
9h 49m
Waning Gibbous, 60% of the Moon is Illuminated
Feb 2
Waning Gibbous
Feb 3
Last Quarter
Feb 10
New
Feb 17
First Quarter
Feb 25
Full

Hourly Weather History & Observations

Time (EST) Temp. Windchill Dew Point Humidity Pressure Visibility Wind Dir Wind Speed Gust Speed Precip Events Conditions
12:14 AM 11.1 °F -3.9 °F 7.5 °F 85% 30.03 in 3.0 mi SW 12.7 mph 17.3 mph N/A Snow Light Snow
12:35 AM 11.7 °F -2.5 °F 8.1 °F 85% 30.03 in 5.0 mi SW 11.5 mph - N/A   Overcast
12:54 AM 12.7 °F 0.4 °F 9.1 °F 86% 30.02 in 4.0 mi SW 9.2 mph - N/A Snow Light Snow
1:14 AM 12.6 °F 1.1 °F 9.1 °F 86% 30.01 in 1.0 mi SW 8.1 mph 16.1 mph N/A Snow Light Snow
1:35 AM 12.6 °F -0.6 °F 9.3 °F 87% 30.01 in 2.0 mi WSW 10.4 mph - N/A Snow Light Snow
1:54 AM 12.9 °F 3.8 °F 8.4 °F 82% 30.01 in 2.5 mi West 5.8 mph 16.1 mph N/A Snow Light Snow
2:15 AM 12.6 °F 2.2 °F 8.2 °F 83% 30.01 in 2.5 mi WNW 6.9 mph - N/A Snow Light Snow
2:35 AM 11.1 °F -0.6 °F 6.4 °F 81% 30.01 in 4.0 mi WNW 8.1 mph - N/A Snow Light Snow
2:54 AM 11.1 °F 0.4 °F 5.2 °F 77% 30.01 in 7.0 mi West 6.9 mph - N/A   Overcast
3:15 AM 10.9 °F -0.8 °F 4.3 °F 75% 30.01 in 10.0 mi West 8.1 mph - N/A   Overcast
3:35 AM 11.1 °F -1.6 °F 4.6 °F 75% 30.01 in 7.0 mi WNW 9.2 mph - N/A Snow Light Snow
3:54 AM 10.9 °F -0.8 °F 4.5 °F 75% 30.00 in 7.0 mi WNW 8.1 mph - N/A Snow Light Snow
4:15 AM 10.6 °F 1.0 °F 3.9 °F 75% 30.00 in 10.0 mi West 5.8 mph 16.1 mph N/A   Overcast
4:35 AM 10.4 °F -1.5 °F 3.4 °F 73% 30.00 in 10.0 mi West 8.1 mph - N/A   Overcast
4:54 AM 10.4 °F -0.4 °F 3.4 °F 73% 30.00 in 10.0 mi West 6.9 mph - N/A   Overcast
5:15 AM 10.4 °F -0.4 °F 3.2 °F 73% 30.00 in 10.0 mi West 6.9 mph - N/A   Overcast
5:35 AM 10.4 °F -1.5 °F 3.6 °F 74% 29.99 in 7.0 mi West 8.1 mph - N/A   Overcast
5:54 AM 10.4 °F -0.4 °F 3.0 °F 72% 29.99 in 10.0 mi WNW 6.9 mph - N/A   Overcast
6:15 AM 10.4 °F 0.8 °F 2.8 °F 72% 29.99 in 10.0 mi WNW 5.8 mph - N/A   Overcast
6:34 AM 10.4 °F 0.8 °F 2.8 °F 72% 29.99 in 10.0 mi WNW 5.8 mph - N/A   Overcast
6:54 AM 10.4 °F 4.0 °F 3.7 °F 74% 30.00 in 10.0 mi NNW 3.5 mph - N/A   Overcast
7:15 AM 10.4 °F - 3.7 °F 74% 30.00 in 10.0 mi Calm Calm - N/A   Overcast
7:34 AM 10.4 °F - 3.9 °F 75% 30.00 in 10.0 mi Calm Calm - N/A   Overcast
7:54 AM 10.4 °F - 4.6 °F 78% 30.00 in 7.0 mi Calm Calm - N/A   Overcast
8:15 AM 9.5 °F - 4.6 °F 81% 30.01 in 5.0 mi Calm Calm - N/A   Haze
8:34 AM 8.1 °F - 3.9 °F 83% 30.01 in 5.0 mi Calm Calm - N/A   Overcast
8:54 AM 8.4 °F -0.1 °F 4.3 °F 83% 30.01 in 3.0 mi North 4.6 mph - N/A Snow Light Snow
9:15 AM 9.3 °F -2.8 °F 4.5 °F 81% 30.02 in 5.0 mi North 8.1 mph - N/A   Haze
9:34 AM 9.5 °F 1.2 °F 4.3 °F 79% 30.02 in 10.0 mi North 4.6 mph - N/A   Overcast
9:54 AM 9.5 °F 1.2 °F 3.7 °F 77% 30.02 in 10.0 mi North 4.6 mph - N/A   Overcast
10:15 AM 10.4 °F 4.0 °F 3.7 °F 74% 30.01 in 10.0 mi NNW 3.5 mph - N/A   Overcast
10:34 AM 12.7 °F 5.0 °F 5.4 °F 72% 30.01 in 10.0 mi WNW 4.6 mph - N/A   Scattered Clouds
10:54 AM 12.9 °F 5.2 °F 3.7 °F 67% 30.02 in 10.0 mi West 4.6 mph - N/A   Clear
11:15 AM 12.9 °F - 3.9 °F 67% 30.02 in 10.0 mi Calm Calm - N/A   Clear
11:34 AM 12.9 °F 6.9 °F 3.7 °F 67% 30.02 in 10.0 mi NNW 3.5 mph - N/A   Clear
11:54 AM 12.9 °F 2.6 °F 4.8 °F 70% 30.02 in 10.0 mi NNW 6.9 mph - N/A   Clear
12:15 PM 13.1 °F 7.1 °F 4.5 °F 68% 30.01 in 10.0 mi NW 3.5 mph - N/A   Clear
12:34 PM 13.1 °F - 3.7 °F 66% 30.01 in 10.0 mi Calm Calm - N/A   Clear
12:54 PM 14.4 °F - 4.1 °F 64% 30.01 in 10.0 mi Calm Calm - N/A   Clear
1:15 PM 14.5 °F 5.7 °F 3.6 °F 62% 30.00 in 10.0 mi NNW 5.8 mph - N/A   Clear
1:34 PM 14.7 °F 9.0 °F 2.7 °F 59% 30.00 in 10.0 mi North 3.5 mph - N/A   Scattered Clouds
1:54 PM 14.5 °F 7.1 °F 1.0 °F 55% 30.00 in 10.0 mi North 4.6 mph - N/A   Clear
2:15 PM 15.4 °F 3.8 °F 2.3 °F 56% 30.00 in 10.0 mi North 9.2 mph - N/A   Scattered Clouds
2:34 PM 13.3 °F 4.2 °F 1.2 °F 59% 30.00 in 10.0 mi North 5.8 mph - N/A   Scattered Clouds
2:54 PM 13.1 °F 2.8 °F 1.0 °F 59% 30.00 in 10.0 mi North 6.9 mph - N/A   Clear
3:14 PM 14.5 °F 4.6 °F 1.6 °F 57% 30.00 in 10.0 mi NW 6.9 mph - N/A   Mostly Cloudy
3:34 PM 13.3 °F 2.0 °F 0.3 °F 56% 30.01 in 10.0 mi NW 8.1 mph - N/A   Scattered Clouds
3:55 PM 13.1 °F 5.4 °F 0.3 °F 57% 30.01 in 10.0 mi WNW 4.6 mph - N/A   Mostly Cloudy
4:14 PM 13.6 °F 2.5 °F 1.0 °F 57% 30.01 in 10.0 mi North 8.1 mph - N/A   Overcast
4:34 PM 13.1 °F 5.4 °F 0.5 °F 57% 30.01 in 10.0 mi North 4.6 mph - N/A   Mostly Cloudy
4:55 PM 12.9 °F - 0.7 °F 58% 30.01 in 10.0 mi Calm Calm - N/A   Scattered Clouds
5:14 PM 12.9 °F - 1.4 °F 60% 30.01 in 10.0 mi Calm Calm - N/A   Scattered Clouds
5:34 PM 12.9 °F - 1.6 °F 61% 30.02 in 10.0 mi Calm Calm - N/A   Scattered Clouds
5:55 PM 12.2 °F - 2.1 °F 64% 30.02 in 10.0 mi Calm Calm - N/A   Clear
6:14 PM 8.2 °F - 1.4 °F 74% 30.02 in 10.0 mi Calm Calm - N/A   Clear
6:34 PM 7.7 °F - 2.8 °F 81% 30.02 in 10.0 mi Calm Calm - N/A   Clear
6:55 PM 7.3 °F - 2.8 °F 82% 30.03 in 10.0 mi Calm Calm - N/A   Clear
7:34 PM 4.8 °F -2.3 °F 0.9 °F 84% 30.03 in 10.0 mi ENE 3.5 mph - N/A   Mostly Cloudy
7:54 PM 5.7 °F -3.2 °F 1.6 °F 83% 30.02 in 10.0 mi NE 4.6 mph - N/A   Overcast
8:14 PM 5.7 °F -3.2 °F 1.4 °F 82% 30.02 in 10.0 mi NE 4.6 mph - N/A   Overcast
8:35 PM 5.4 °F -1.7 °F 0.5 °F 80% 30.02 in 10.0 mi NE 3.5 mph - N/A   Mostly Cloudy
8:54 PM 5.4 °F - 1.2 °F 83% 30.01 in 10.0 mi Calm Calm - N/A   Scattered Clouds
9:14 PM 5.9 °F -1.1 °F 1.4 °F 82% 30.01 in 10.0 mi NE 3.5 mph - N/A   Overcast
9:35 PM 7.7 °F 1.0 °F 3.0 °F 81% 30.00 in 10.0 mi NE 3.5 mph - N/A   Overcast
9:54 PM 7.7 °F - 3.2 °F 82% 30.00 in 10.0 mi Calm Calm - N/A   Overcast
10:14 PM 7.7 °F - 3.0 °F 81% 30.00 in 10.0 mi Calm Calm - N/A   Overcast
10:35 PM 7.7 °F - 3.2 °F 82% 30.00 in 10.0 mi Calm Calm - N/A   Overcast
10:54 PM 7.7 °F - 3.0 °F 81% 30.00 in 10.0 mi Calm Calm - N/A   Overcast
11:14 PM 7.7 °F - 3.2 °F 82% 29.99 in 10.0 mi Calm Calm - N/A   Overcast
11:35 PM 7.7 °F - 3.9 °F 85% 29.99 in 10.0 mi Calm Calm - N/A   Overcast
11:54 PM 8.2 °F - 3.0 °F 79% 29.98 in 10.0 mi Calm Calm - N/A   Overcast